OpenBCM V2.0.3 (Linux)

Packet Radio Mailbox

IZ3LSV

[San Dona' di P. JN]

 Login: GUEST





  
I0OJJ  > AMSAT    20.05.26 02:31l 338 Lines 15970 Bytes #999 (0) @ WW
BID : 1CY_IR0EQ
Read: GUEST
Subj: 2Line Orbital Elements
Path: IZ3LSV<I0OJJ<IR0EQ
Sent: 260520/0027z @:IR0EQ.ITA.EU [Rome] $:1CY_IR0EQ

>From i0ojj%ir0eq.ita.eu@i0ojj.ampr.org Wed May 20 02:28:56 2026
Received: from i0ojj.ampr.org by i0ojj.ampr.org (JNOS2.0q.1) with SMTP
	id AA17060049 ; Wed, 20 May 2026 02:28:56 +0200
Message-Id: <1CY_IR0EQ@i0ojj.bbs>
>From: i0ojj@ir0eq.ita.eu
X-JNOS-User-Port: Telnet   (i0ojj @ 44.27.18.9)  ->   Sending message

>From i0ojj@rgate.ampr.org Wed May 20 02:27:24 2026
Received: from rgate.ampr.org by rgate.ampr.org (JNOS2.0q.1) with SMTP
	id AA1762 ; Wed, 20 May 2026 02:27:24 +0200
Received: by rgate.ampr.org with SMTP
	id AA1759 ; Wed, 20 May 2026 02:27:02 +0200
Message-Id: <1760@rgate.ampr.org>
>From: i0ojj@rgate.ampr.org

SB KEPS @ AMSAT  $ORB26140.1
2Line Orbital Elements 26140.AMSAT

QST de W1STR

AMSAT Orbital Elements for Amateur Satellites in TLE Format
>From Orbital Analysis Office
New England Sci-Tech STEM Education Center
Natick MA May 20, 2026
To all radio amateurs


These element sets describe the orbits of various satellites 
in use by the amateur radio community. For details see:
www.amsat.org/keplerian-elements-formats/

A daily update of element sets is available at:
www.amsat.org/tle/daily-bulletin.txt
or without bulletin text:
www.amsat.org/tle/dailytle.txt


AO-07
1 07530U 74089B   26139.89690485 -.00000055  00000-0 -53897-4 0  9991
2 07530 101.9911 152.8478 0012249 183.3266 248.6664 12.53697591356975
UO-11
1 14781U 84021B   26139.62742899  .00000611  00000-0  67993-4 0  9990
2 14781  97.8042 105.5264 0006031 281.6133  78.4408 14.90707212252878
AO-27
1 22825U 93061C   26139.40091535  .00000057  00000-0  38626-4 0  9997
2 22825  98.6890 206.8229 0008442 177.1084 183.0148 14.30933560702880
FO-29
1 24278U 96046B   26139.84575331  .00000005  00000-0  39402-4 0  9992
2 24278  98.5268 352.5960 0350056 169.8315 191.0151 13.53272796469333
GO-32
1 25397U 98043D   26139.40518774  .00000017  00000-0  27359-4 0  9995
2 25397  99.0065 131.4395 0000651 357.9787   2.1388 14.24422141447238
ISS
1 25544U 98067A   26139.81053376  .00005239  00000-0  10220-3 0  9991
2 25544  51.6327  80.5761 0007549  76.5627 283.6202 15.49275597567354
NO-44
1 26931U 01043C   26139.87181922  .00000054  00000-0  51158-4 0  9991
2 26931  67.0507 317.5081 0006217 263.5445  96.4949 14.31943954286390
SO-50
1 27607U 02058C   26139.63078410  .00000548  00000-0  82624-4 0  9990
2 27607  64.5520 217.3330 0075613 267.7041  91.5406 14.82980190260223
CO-55
1 27844U 03031E   26139.72704258  .00000172  00000-0  93563-4 0  9998
2 27844  98.6744 148.6439 0008282 267.9706  92.0524 14.24316262187624
RS-22
1 27939U 03042A   26139.83816372  .00001054  00000-0  17076-3 0  9992
2 27939  98.3464 323.3976 0011378   5.6952 119.1887 14.73413052211375
CO-65
1 32785U 08021C   26139.87354760  .00003266  00000-0  20974-3 0  9999
2 32785  97.8271 120.7130 0010579 119.5994 240.6290 15.09152636980924
CO-66
1 32791U 08021J   26139.46582154  .00012886  00000-0  42370-3 0  9993
2 32791  97.7524 136.0178 0004739  71.6173 288.5582 15.31671371982891
RS-30
1 32953U 08025A   26139.77018758  .00000043  00000-0  24014-3 0  9992
2 32953  82.5064  13.1185 0020090  16.1574 344.0142 12.43178291816161
SRMSAT
1 37841U 11058D   26139.58544160  .00000360  00000-0  51297-4 0  9999
2 37841  19.9713 232.5941 0011591 249.6161 142.4363 14.11568884753775
ZACUBE-1
1 39417U 13066B   26139.87676981  .00003044  00000-0  23957-3 0  9993
2 39417  97.8123 102.0604 0040994 347.8818  12.1416 15.00948884676487
Delfi-N3xt
1 39428U 13066N   26139.73062400  .00004979  00000-0  44016-3 0  9992
2 39428  97.8351  60.0746 0073233 302.4944  56.9212 14.94737068670375
GOMX-1
1 39430U 13066Q   26139.78955978  .00001183  00000-0  18391-3 0  9992
2 39430  97.6496 342.0436 0129033 168.0442 192.3879 14.69333977665746
LO-74
1 39440U 13066AA  26139.59162167  .00002255  00000-0  21261-3 0  9993
2 39440  97.8895  88.4584 0059292 121.3860 239.3178 14.93514845672724
AO-73
1 39444U 13066AE  26139.88001220  .00005392  00000-0  33982-3 0  9999
2 39444  97.8266 110.7464 0034852 301.7800  58.0035 15.09086227675399
DTUSAT-2
1 40030U 14033W   26139.70173947  .00004217  00000-0  23233-3 0  9997
2 40030  98.0868 135.6310 0007187 345.8586  14.2441 15.14605635648379
LILACSAT-2
1 40908U 15049K   26139.81922402  .00013324  00000-0  23568-3 0  9999
2 40908  97.4675 175.5996 0006833  14.3695 345.7749 15.50422316591352
Horyu-4
1 41340U 16012D   26139.75726586  .00168359  00000-0  85394-3 0  9993
2 41340  30.9888 285.0471 0004388  82.5122 277.6034 15.79898686566294
Lapan A3
1 41603U 16040E   26139.86237574  .00002164  00000-0  70297-4 0  9990
2 41603  97.1489 136.9446 0012150 113.2688 246.9835 15.32908095550475
CAS-2T
1 41847U 16066G   26139.49602104  .00000670  00000-0  10371-3 0  9998
2 41847  98.3827 215.5577 0341384 216.4556 141.2952 14.44599488500653
TechnoSat
1 42829U 17042E   26139.39117919  .00002727  00000-0  19702-3 0  9990
2 42829  97.4252 298.1539 0017634 188.6248 171.4679 15.04759082482371
AO-91
1 43017U 17073E   26139.89194132  .00007348  00000-0  32221-3 0  9996
2 43017  97.4738   7.6935 0153801  66.6401 295.0925 15.12149906461119
S-Net D
1 43186U 18014G   26139.69367936  .00003306  00000-0  17367-3 0  9995
2 43186  97.5384  44.6656 0009949 112.4487 247.7800 15.16371018454441
S-Net B
1 43187U 18014H   26139.63858632  .00003005  00000-0  15828-3 0  9994
2 43187  97.5389  44.5965 0010652 108.9537 251.2851 15.16341045454430
S-Net A
1 43188U 18014J   26139.69270203  .00003246  00000-0  17051-3 0  9990
2 43188  97.5399  44.8537 0010564 109.3476 250.8900 15.16378347454445
S-Net C
1 43189U 18014K   26139.64231079  .00002879  00000-0  15176-3 0  9991
2 43189  97.5416  44.8740 0012024 103.8442 256.4129 15.16332161452983
Ten-Koh
1 43677U 18084G   26139.49400707  .00001144  00000-0  90422-4 0  9991
2 43677  98.0751 330.6516 0008955 209.9306 150.1407 15.02788379411856
PO-101
1 43678U 18084H   26139.82617252  .00001825  00000-0  15073-3 0  9998
2 43678  98.1109 334.8151 0011674 268.1677  91.8208 15.00300259411963
QO-100
1 43700U 18090A   26139.84697727  .00000141  00000-0  00000+0 0  9998
2 43700   0.0147 341.8569 0001314 107.0377 119.3250  1.00270116 27398
MinXSS-2
1 43758U 18099A   26139.61033845  .00024770  00000-0  52833-3 0  9999
2 43758  97.4543 215.1014 0006778  20.1413 340.0102 15.44865898409713
AO-95
1 43770U 18099N   26139.62600602  .00007779  00000-0  30464-3 0  9991
2 43770  97.4397 199.9897 0010469  91.7701 268.4736 15.26026101408865
SNUSat 2
1 43782U 18099AA  26139.39787328  .00004781  00000-0  21620-3 0  9993
2 43782  97.4073 193.2313 0011200  45.4024 314.8123 15.21349476408658
SnugLite
1 43784U 18099AC  26139.11062210  .00007882  00000-0  30482-3 0  9992
2 43784  97.3883 193.6889 0003814  58.8601 301.3011 15.26478943408880
ITASat 1
1 43786U 18099AE  26139.69280576  .00004794  00000-0  23411-3 0  9997
2 43786  97.4045 191.7785 0014402  93.3195 266.9687 15.18646677408588
EAGLET 1
1 43790U 18099AJ  26139.41258116  .00002768  00000-0  16151-3 0  9999
2 43790  97.4249 189.8454 0012872  87.0794 273.1910 15.12693031407986
ESEO
1 43792U 18099AL  26139.10999152  .00001213  00000-0  91462-4 0  9992
2 43792  97.4001 177.7418 0013643  75.7312 284.5429 15.04151079407430
JO-97
1 43803U 18099AX  26139.11698420  .00011732  00000-0  37434-3 0  9995
2 43803  97.4142 201.8701 0005752  31.4913 328.6673 15.32643998409172
Suomi 100
1 43804U 18099AY  26139.13098526  .00008395  00000-0  31256-3 0  9996
2 43804  97.4202 199.6455 0010425  32.8550 327.3335 15.27679899408987
ISAT
1 43879U 18111D   26139.79521756  .00062026  00000-0  75597-3 0  9998
2 43879  97.5908  72.9464 0007380  68.9131 291.2914 15.60272357406735
UWE-4
1 43880U 18111E   26139.52633225  .00023571  00000-0  51373-3 0  9994
2 43880  97.5863  66.6400 0010413  74.5127 285.7270 15.44204808406355
Sparrow
1 43881U 18111F   26139.77585382  .00085629  00000-0  80479-3 0  9993
2 43881  97.6132  78.0975 0007354  97.3047 262.9049 15.66839838406918
Prox-1
1 44339U 19036A   26139.53289707  .00008911  00000-0  87575-3 0  9998
2 44339  23.9963 305.5527 0006779  60.1635 299.9538 14.89865379369197
Taurus 1
1 44530U 19059C   26139.75985436  .00003797  00000-0  61672-3 0  9999
2 44530  98.6401 302.8350 0009083  49.2713 310.9279 14.71754380354466
TO-108
1 44881U 19093C   26139.84024314  .00001072  00000-0  12714-3 0  9992
2 44881  97.7538 212.7629 0013613 173.5989 186.5404 14.86469428347207
RS-44
1 44909U 19096E   26139.85978775  .00000018  00000-0  31578-4 0  9995
2 44909  82.5232 358.5322 0216899 210.3799 148.4586 12.79748339298721
SALSAT
1 46495U 20068K   26139.81893080  .00005756  00000-0  20490-3 0  9993
2 46495  97.8857 141.1678 0011089  50.2482 309.9732 15.29337750311024
CSS (TIANHE-1)
1 48274U 21035A   26139.68573117  .00010337  00000-0  12480-3 0  9997
2 48274  41.4673 135.3180 0007516 261.3517  98.6471 15.60677701288718
CUTE
1 49263U 21088D   26139.24377194  .00096728  00000-0  52730-3 0  9993
2 49263  97.4199 236.0187 0002143 264.5516  95.5506 15.79648470257961
TeikyoSat 4
1 49396U 21102B   26139.81436426  .00001257  00000-0  82338-4 0  9995
2 49396  97.3691 170.4003 0012990  37.8343 322.3797 15.09395791248446
Z-Sat
1 49399U 21102E   26139.85590723  .00001927  00000-0  97706-4 0  9992
2 49399  97.3338 176.0406 0016250 352.8358   7.2642 15.18023343249142
KOSEN 1
1 49402U 21102H   26139.36668994  .00004269  00000-0  16652-3 0  9991
2 49402  97.3204 182.0897 0012211 314.3229  45.7008 15.26397307249622
HO-113
1 50466U 21131B   26139.87012623  .00000336  00000-0  11754-3 0  9992
2 50466  98.4970 232.4150 0004324 166.4332 193.6973 14.41327210231037
SNUGLITE 2
1 52899U 22065F   26139.67333257  .00000546  00000-0  11272-3 0  9996
2 52899  98.2166 284.5616 0008751 111.0578 249.1561 14.64286903206822
